Back to catalog

CZ-4 DEB

AliveSSO
NORAD 26191·DEBRIS·🇨🇳 China

Launched Oct 14, 1999 from Taiyuan Satellite Launch Center

Loading…

Next Passes (next 24 hours)

TLE

FreshSource: Space-Track

Epoch: Sep 14, 2026, 03:19 UTC

1 26191U 99057CD  26257.13830330  .00000999  00000-0  26153-3 0  9999
2 26191  98.5356 323.1158 0088420 116.9421 273.4777 14.49265506391110

Track CZ-4 DEB in real time with AllMySat

Download on the App Store